DW7000 Weather Reports


time (UTC)temp
F
wind
direction
speed
knots
gust
knots
rain 1hr
in
rain 24hr
in
rain mn
in
humidity
%
barometer
mb
20260509000023 58 153 0.0 0.0 0.00 0.00 0.00 71 1012.1
20260508234526 58 155 0.0 0.0 0.00 0.00 0.00 71 1012.0
20260508233022 59 148 0.0 0.0 0.00 0.00 0.00 71 1012.1
20260508231521 59 169 0.0 0.0 0.00 0.00 0.00 71 1012.1
20260508230020 60 133 0.0 0.0 0.00 0.00 0.00 69 1012.1
20260508224526 60 222 0.0 0.9 0.00 0.00 0.00 69 1011.9
20260508223031 61 153 0.0 0.0 0.00 0.00 0.00 70 1012.1
20260508221519 61 156 0.0 0.0 0.00 0.00 0.00 68 1012.2
20260508220018 61 159 0.0 0.0 0.00 0.00 0.00 67 1012.0
20260508214528 62 157 0.0 0.0 0.00 0.00 0.00 66 1012.0
20260508213018 63 139 0.0 0.0 0.00 0.00 0.00 65 1012.1
20260508211516 62 158 0.0 0.0 0.00 0.00 0.00 63 1012.0
20260508210017 63 201 0.0 0.0 0.00 0.00 0.00 64 1012.0
20260508204518 64 172 0.0 0.0 0.00 0.00 0.00 60 1012.0
20260508203018 65 166 0.0 0.9 0.00 0.00 0.00 58 1012.0
20260508201516 66 146 0.0 2.6 0.00 0.00 0.00 59 1012.3
20260508200020 67 208 0.0 0.0 0.00 0.00 0.00 55 1012.4
20260508194516 67 150 0.0 2.6 0.00 0.00 0.00 54 1012.6
20260508193012 67 129 0.0 0.9 0.00 0.00 0.00 54 1012.8
20260508191509 66 95 0.0 0.0 0.00 0.00 0.00 58 1013.0
20260508190021 65 148 0.0 0.0 0.00 0.00 0.00 56 1013.3
20260508184519 65 152 0.0 0.0 0.00 0.00 0.00 57 1013.6
20260508183012 64 134 0.0 2.6 0.00 0.00 0.00 57 1013.7
20260508181504 64 167 0.0 0.0 0.00 0.00 0.00 59 1013.9
20260508180004 63 145 0.0 0.9 0.00 0.00 0.00 59 1014.1
20260508174503 64 152 0.0 0.0 0.00 0.00 0.00 57 1014.1
20260508173003 64 231 0.0 0.0 0.00 0.00 0.00 59 1014.4
20260508171503 62 195 0.0 0.0 0.00 0.00 0.00 58 1014.4
20260508170004 63 164 0.0 0.0 0.00 0.00 0.00 60 1014.9
20260508164503 65 155 0.0 0.0 0.00 0.00 0.00 58 1015.0
20260508163059 64 165 0.0 0.9 0.00 0.00 0.00 58 1015.2
20260508161606 62 146 0.0 0.0 0.00 0.00 0.00 58 1015.3
20260508160054 61 246 0.0 0.0 0.00 0.00 0.00 63 1015.4
20260508154552 60 129 0.0 0.0 0.00 0.00 0.00 67 1015.6
20260508153056 60 152 0.0 0.0 0.00 0.00 0.00 66 1015.8
20260508151550 60 158 0.0 0.0 0.00 0.00 0.00 62 1015.7
20260508150046 59 263 0.0 0.0 0.00 0.00 0.00 67 1015.7
20260508144550 58 177 0.0 0.0 0.00 0.00 0.00 67 1015.7
20260508143044 58 146 0.0 0.0 0.00 0.00 0.00 67 1015.6
20260508141540 57 124 0.0 0.0 0.00 0.00 0.00 68 1015.7
20260508140034 56 162 0.0 0.0 0.00 0.06 0.00 70 1015.8
20260508134534 55 155 0.0 0.0 0.00 0.06 0.00 71 1016.0
20260508133030 55 236 0.0 0.0 0.00 0.06 0.00 72 1016.0
20260508131524 53 338 0.0 0.0 0.00 0.06 0.00 73 1015.8
20260508130032 51 333 0.0 0.0 0.00 0.09 0.00 74 1015.6
20260508124521 51 18 0.0 0.0 0.00 0.09 0.00 72 1015.6
20260508123021 51 358 0.0 0.0 0.00 0.09 0.00 71 1015.3
20260508121516 50 316 0.0 0.0 0.00 0.09 0.00 71 1015.0
20260508120014 50 66 0.0 0.0 0.00 0.15 0.00 75 1014.8
20260508114511 49 321 0.0 0.9 0.00 0.15 0.00 78 1014.5
20260508113010 50 337 0.0 4.3 0.00 0.15 0.00 77 1014.2
20260508111508 49 318 0.0 2.6 0.00 0.15 0.00 76 1013.7
20260508110006 49 340 0.0 3.5 0.00 0.24 0.00 78 1013.4
20260508104505 49 277 0.0 4.3 0.00 0.24 0.00 78 1013.4
20260508103005 49 289 0.0 5.2 0.00 0.24 0.00 77 1013.1
20260508101559 49 314 0.0 3.5 0.00 0.24 0.00 79 1012.8
20260508100057 49 309 0.0 3.5 0.00 0.24 0.00 80 1012.5
20260508094555 50 22 0.0 4.3 0.00 0.31 0.00 80 1012.1
20260508093104 50 294 0.0 6.1 0.00 0.31 0.00 79 1012.1
20260508091555 50 68 0.0 5.2 0.00 0.31 0.00 79 1012.1
20260508090059 50 52 0.0 5.2 0.00 0.32 0.00 79 1012.1
20260508084549 50 340 0.0 5.2 0.00 0.32 0.00 79 1012.1
20260508083049 51 25 0.0 3.5 0.00 0.32 0.00 78 1012.0
20260508081546 51 295 0.0 7.0 0.00 0.32 0.00 78 1011.9
20260508080045 51 236 0.0 2.6 0.00 0.35 0.00 78 1011.7
20260508074544 51 56 0.0 3.5 0.00 0.35 0.00 78 1011.8
20260508073043 51 305 0.0 7.0 0.00 0.35 0.00 78 1011.9
20260508071542 50 53 0.0 0.0 0.00 0.35 0.00 82 1011.7
20260508070040 51 264 0.0 0.0 0.00 0.40 0.00 80 1011.7
20260508064541 51 232 0.0 0.0 0.00 0.40 0.00 80 1011.4
20260508063055 51 345 0.0 0.0 0.00 0.40 0.00 80 1011.5
20260508061534 51 353 0.0 0.0 0.00 0.40 0.00 79 1011.6
20260508060032 51 240 0.0 0.0 0.00 0.52 0.00 78 1011.5
20260508054530 52 275 0.0 2.6 0.00 0.52 0.00 76 1011.4
20260508053029 52 347 0.0 3.5 0.00 0.52 0.00 76 1011.3
20260508051527 52 295 0.0 2.6 0.00 0.52 0.00 76 1011.3
20260508050034 52 315 0.0 6.1 0.00 0.53 0.00 75 1011.0
20260508044524 52 315 0.9 8.7 0.00 0.53 0.00 75 1010.9
20260508043021 52 56 0.0 8.7 0.00 0.53 0.00 75 1010.9
20260508041521 53 288 0.0 7.0 0.00 0.53 0.00 74 1010.8
20260508040019 53 277 0.0 8.7 0.00 0.53 0.53 73 1010.6
20260508034519 53 32 0.0 7.0 0.00 0.53 0.53 74 1010.7
20260508033015 53 296 0.0 7.0 0.00 0.53 0.53 74 1010.7
20260508031515 53 267 0.0 4.3 0.00 0.53 0.53 74 1010.8
20260508030014 53 295 0.0 4.3 0.00 0.59 0.53 76 1010.7
20260508024513 53 314 0.0 7.8 0.00 0.59 0.53 78 1010.8
20260508023012 53 263 0.0 0.0 0.00 0.59 0.53 78 1010.6
20260508021512 53 256 0.0 6.1 0.00 0.59 0.53 78 1010.3
20260508020012 53 289 0.0 7.0 0.00 0.67 0.53 79 1010.0
20260508014610 53 356 0.0 4.3 0.00 0.67 0.53 80 1009.8
20260508013008 53 304 0.9 13.9 0.00 0.67 0.53 80 1009.3
20260508011508 53 295 2.6 13.0 0.00 0.67 0.53 81 1009.1
20260508010005 53 326 3.5 13.9 0.00 0.74 0.53 83 1008.6
20260508004504 53 304 3.5 13.9 0.00 0.74 0.53 83 1008.1
20260508003101 54 338 2.6 13.9 0.00 0.74 0.53 83 1007.9
20260508001624 54 353 3.5 13.9 0.00 0.74 0.53 83 1007.6